Location: Altoona
(40.5167°N, 78.4000°W)
Time: 02:56:35
(UTC-05:00)

Resurs 1-3 - Pass Details

Date: 21 August 2017
Orbit: 631 x 632 km, 98.1° (Epoch: 20 November)

Event Time Altitude Azimuth Distance (km) Brightness Sun altitude
Rises 20:49:14 0° 166° (SSE) 2,907 6.6 -9.2°
Reaches altitude 10° 20:51:25 10° 167° (SSE) 2,004 5.8 -9.6°
Maximum altitude 20:55:47 87° 258° (WSW) 637 3.6 -10.4°
Drops below altitude 10° 21:00:12 10° 347° (NNW) 2,020 6.8 -11.1°
Sets 21:02:24 0° 347° (NNW) 2,932 7.6 -11.5°
